Location: Osnabrueck
(52.2800°N, 7.9700°E)
Time: 12:21:45
(UTC+02:00)

OTV 5 (USA 277) - Visible Passes

Search period start: 21 August 2019 00:00
Search period end: 31 August 2019 00:00
Orbit: 305 x 329 km, 54.5° (Epoch: 20 August)

Date Brightness Start Highest point End Pass type
(mag) Time Alt. Az. Time Alt. Az. Time Alt. Az.
21 Aug ? 04:25:51 54° WSW 04:26:12 63° SSW 04:28:49 10° ESE visible
22 Aug ? 04:41:19 28° S 04:41:19 28° S 04:43:04 10° SE visible
24 Aug ? 21:31:35 10° S 21:33:04 14° SE 21:33:12 14° SE visible
25 Aug ? 21:45:04 10° SSW 21:47:23 26° SE 21:48:20 21° ESE visible
25 Aug ? 23:18:51 10° W 23:19:16 13° W 23:19:16 13° W visible
26 Aug ? 21:59:11 10° SW 22:01:49 51° SSE 22:02:59 27° E visible
26 Aug ? 23:33:31 10° W 23:33:54 13° W 23:33:54 13° W visible
27 Aug ? 22:13:38 10° WSW 22:16:21 89° NW 22:17:20 35° ENE visible
27 Aug ? 23:48:12 10° WNW 23:48:13 10° WNW 23:48:13 10° WNW visible
28 Aug ? 22:28:17 10° W 22:30:57 60° NNW 22:31:29 46° NE visible
29 Aug ? 21:08:30 10° WSW 21:11:11 70° SSE 21:13:52 10° ENE visible
29 Aug ? 22:42:57 10° W 22:45:30 49° NNW 22:45:30 49° NNW visible
30 Aug ? 21:23:03 10° WSW 21:25:45 72° NNW 21:28:26 10° ENE visible
30 Aug ? 22:57:37 10° WNW 22:59:27 34° NW 22:59:27 34° NW visible
